| time (UTC) | temp F | wind direction | speed MPH | gust MPH | rain 1hr in | rain 24hr in | rain mn in | humidity % | barometer mb |
| 20260508133042 | 48 | 186 | 2.0 | 7.0 | 0.00 | 0.53 | 0.01 | 91 | 1002.6 |
| 20260508131537 | 49 | 202 | 3.0 | 6.0 | 0.00 | 0.53 | 0.01 | 94 | 1002.4 |
| 20260508130036 | 48 | 227 | 3.0 | 7.0 | 0.00 | 0.53 | 0.01 | 94 | 1002.5 |
| 20260508124534 | 46 | 161 | 2.0 | 4.0 | 0.00 | 0.55 | 0.01 | 94 | 1002.5 |
| 20260508123035 | 47 | 159 | 0.0 | 1.0 | 0.00 | 0.55 | 0.01 | 94 | 1002.4 |
| 20260508121534 | 48 | 192 | 0.0 | 4.0 | 0.00 | 0.55 | 0.01 | 94 | 1002.4 |
| 20260508120032 | 48 | 141 | 0.0 | 3.0 | 0.00 | 0.55 | 0.01 | 94 | 1002.4 |
| 20260508114535 | 47 | 231 | 3.0 | 6.0 | 0.00 | 0.61 | 0.01 | 93 | 1002.4 |
| 20260508113045 | 50 | 167 | 0.0 | 2.0 | 0.00 | 0.61 | 0.01 | 94 | 1002.5 |
| 20260508111526 | 48 | 233 | 1.0 | 3.0 | 0.00 | 0.61 | 0.01 | 94 | 1002.4 |
| 20260508110023 | 48 | 65 | 0.0 | 2.0 | 0.00 | 0.61 | 0.01 | 95 | 1002.1 |
| 20260508104523 | 47 | 71 | 0.0 | 2.0 | 0.01 | 0.64 | 0.01 | 95 | 1002.1 |
| 20260508103022 | 46 | 96 | 0.0 | 2.0 | 0.01 | 0.64 | 0.01 | 96 | 1001.9 |
| 20260508101531 | 45 | 18 | 0.0 | 2.0 | 0.01 | 0.64 | 0.01 | 96 | 1001.9 |
| 20260508100032 | 43 | 314 | 0.0 | 1.0 | 0.01 | 0.64 | 0.01 | 96 | 1001.7 |
| 20260508094521 | 41 | 23 | 0.0 | 1.0 | 0.00 | 0.69 | 0.00 | 96 | 1001.9 |
| 20260508093023 | 40 | 27 | 0.0 | 0.0 | 0.00 | 0.69 | 0.00 | 96 | 1001.7 |
| 20260508091520 | 40 | 27 | 0.0 | 1.0 | 0.00 | 0.69 | 0.00 | 96 | 1001.7 |
| 20260508090020 | 40 | 27 | 0.0 | 1.0 | 0.00 | 0.69 | 0.00 | 96 | 1001.7 |
| 20260508084518 | 41 | 27 | 0.0 | 1.0 | 0.00 | 0.70 | 0.00 | 96 | 1001.9 |
| 20260508083017 | 40 | 28 | 0.0 | 0.0 | 0.00 | 0.70 | 0.00 | 96 | 1001.6 |
| 20260508081517 | 41 | 27 | 0.0 | 1.0 | 0.00 | 0.70 | 0.00 | 96 | 1001.8 |
| 20260508080022 | 40 | 27 | 0.0 | 1.0 | 0.00 | 0.70 | 0.00 | 96 | 1001.8 |
| 20260508074517 | 40 | 30 | 0.0 | 2.0 | 0.00 | 0.72 | 0.00 | 96 | 1001.8 |
| 20260508073012 | 41 | 265 | 0.0 | 1.0 | 0.00 | 0.72 | 0.00 | 96 | 1001.7 |
| 20260508071512 | 41 | 265 | 0.0 | 1.0 | 0.00 | 0.72 | 0.00 | 96 | 1001.5 |
| 20260508070012 | 42 | 269 | 0.0 | 3.0 | 0.00 | 0.72 | 0.00 | 97 | 1001.7 |
| 20260508064538 | 41 | 3 | 0.0 | 0.0 | 0.00 | 0.72 | 0.00 | 96 | 1001.7 |
| 20260508063012 | 40 | 3 | 0.0 | 1.0 | 0.00 | 0.72 | 0.00 | 96 | 1001.6 |
| 20260508061508 | 41 | 336 | 0.0 | 1.0 | 0.00 | 0.72 | 0.00 | 96 | 1001.4 |
| 20260508060005 | 41 | 336 | 0.0 | 1.0 | 0.00 | 0.72 | 0.00 | 96 | 1001.9 |
| 20260508054503 | 42 | 60 | 0.0 | 0.0 | 0.00 | 0.72 | 0.00 | 96 | 1001.8 |
| 20260508053001 | 42 | 60 | 0.0 | 0.0 | 0.00 | 0.72 | 0.00 | 96 | 1001.8 |
| 20260508051602 | 43 | 60 | 0.0 | 1.0 | 0.00 | 0.72 | 0.00 | 96 | 1002.1 |
| 20260508050100 | 42 | 60 | 0.0 | 0.0 | 0.00 | 0.72 | 0.00 | 96 | 1002.2 |
| 20260508044556 | 42 | 60 | 0.0 | 0.0 | 0.00 | 0.72 | 0.00 | 95 | 1002.3 |
| 20260508043056 | 44 | 61 | 0.0 | 1.0 | 0.00 | 0.72 | 0.00 | 95 | 1002.5 |
| 20260508041550 | 47 | 272 | 0.0 | 1.0 | 0.00 | 0.72 | 0.00 | 96 | 1002.7 |
| 20260508040056 | 47 | 272 | 0.0 | 0.0 | 0.00 | 0.72 | 0.00 | 96 | 1002.5 |
| 20260508034548 | 47 | 272 | 0.0 | 1.0 | 0.00 | 0.72 | 0.00 | 96 | 1002.2 |
| 20260508033046 | 47 | 272 | 0.0 | 0.0 | 0.00 | 0.72 | 0.00 | 96 | 1002.1 |
| 20260508031551 | 48 | 272 | 0.0 | 1.0 | 0.00 | 0.72 | 0.00 | 96 | 1002.6 |
| 20260508030046 | 48 | 272 | 0.0 | 1.0 | 0.00 | 0.72 | 0.00 | 96 | 1002.5 |
| 20260508024541 | 48 | 272 | 0.0 | 1.0 | 0.00 | 0.72 | 0.72 | 96 | 1002.4 |
| 20260508023041 | 47 | 272 | 0.0 | 1.0 | 0.00 | 0.72 | 0.72 | 96 | 1002.5 |
| 20260508021542 | 47 | 269 | 0.0 | 1.0 | 0.00 | 0.72 | 0.72 | 96 | 1002.6 |
| 20260508020040 | 48 | 267 | 0.0 | 1.0 | 0.00 | 0.72 | 0.72 | 96 | 1002.6 |
| 20260508014539 | 48 | 264 | 0.0 | 3.0 | 0.00 | 0.72 | 0.72 | 96 | 1002.7 |
| 20260508013041 | 48 | 278 | 0.0 | 2.0 | 0.00 | 0.72 | 0.72 | 96 | 1002.6 |
| 20260508011544 | 49 | 288 | 0.0 | 1.0 | 0.00 | 0.72 | 0.72 | 96 | 1002.7 |
| 20260508010040 | 49 | 254 | 0.0 | 1.0 | 0.00 | 0.72 | 0.72 | 96 | 1002.6 |
| 20260508004540 | 49 | 283 | 0.0 | 2.0 | 0.00 | 0.72 | 0.72 | 96 | 1002.6 |
| 20260508003037 | 49 | 264 | 1.0 | 4.0 | 0.00 | 0.72 | 0.72 | 96 | 1002.3 |
| 20260508001538 | 50 | 274 | 0.0 | 2.0 | 0.00 | 0.72 | 0.72 | 96 | 1002.2 |
| 20260508000048 | 50 | 264 | 0.0 | 2.0 | 0.00 | 0.72 | 0.72 | 96 | 1001.6 |
| 20260507234543 | 50 | 268 | 0.0 | 2.0 | 0.00 | 0.72 | 0.72 | 96 | 1002.0 |
| 20260507233036 | 49 | 274 | 0.0 | 4.0 | 0.00 | 0.72 | 0.72 | 96 | 1002.0 |
| 20260507231537 | 49 | 249 | 1.0 | 5.0 | 0.00 | 0.72 | 0.72 | 96 | 1001.9 |
| 20260507230030 | 45 | 268 | 0.0 | 2.0 | 0.00 | 0.72 | 0.72 | 95 | 1001.6 |
| 20260507224529 | 45 | 111 | 0.0 | 0.0 | 0.00 | 0.72 | 0.72 | 95 | 1001.6 |
| 20260507223029 | 48 | 110 | 0.0 | 3.0 | 0.00 | 0.72 | 0.72 | 95 | 1001.7 |
| 20260507221527 | 48 | 256 | 2.0 | 5.0 | 0.00 | 0.72 | 0.72 | 95 | 1001.7 |
| 20260507220026 | 48 | 246 | 2.0 | 5.0 | 0.00 | 0.72 | 0.72 | 95 | 1001.8 |
| 20260507214529 | 47 | 285 | 2.0 | 7.0 | 0.00 | 0.72 | 0.72 | 95 | 1001.9 |
| 20260507213026 | 47 | 333 | 2.0 | 9.0 | 0.00 | 0.72 | 0.72 | 95 | 1001.8 |
| 20260507211533 | 47 | 262 | 3.0 | 8.0 | 0.00 | 0.72 | 0.72 | 95 | 1001.8 |
| 20260507210024 | 47 | 275 | 5.0 | 8.0 | 0.00 | 0.72 | 0.72 | 95 | 1002.0 |
| 20260507204522 | 47 | 250 | 5.0 | 12.0 | 0.00 | 0.72 | 0.72 | 95 | 1002.0 |
| 20260507203022 | 47 | 268 | 5.0 | 10.0 | 0.00 | 0.72 | 0.72 | 95 | 1002.0 |
| 20260507201512 | 47 | 266 | 5.0 | 9.0 | 0.00 | 0.72 | 0.72 | 96 | 1002.0 |
| 20260507200004 | 47 | 254 | 4.0 | 10.0 | 0.00 | 0.72 | 0.72 | 96 | 1002.0 |
| 20260507194504 | 46 | 226 | 5.0 | 12.0 | 0.00 | 0.72 | 0.72 | 95 | 1002.1 |
| 20260507193005 | 46 | 245 | 7.0 | 12.0 | 0.01 | 0.72 | 0.72 | 95 | 1002.3 |
| 20260507191504 | 46 | 262 | 6.0 | 15.0 | 0.01 | 0.72 | 0.72 | 96 | 1002.5 |
| 20260507190005 | 46 | 240 | 6.0 | 11.0 | 0.02 | 0.72 | 0.72 | 96 | 1002.3 |
| 20260507184502 | 46 | 280 | 4.0 | 12.0 | 0.02 | 0.72 | 0.72 | 96 | 1002.0 |
| 20260507183001 | 45 | 274 | 8.0 | 14.0 | 0.02 | 0.71 | 0.71 | 96 | 1002.2 |
| 20260507181559 | 45 | 262 | 8.0 | 14.0 | 0.06 | 0.71 | 0.71 | 95 | 1002.0 |
| 20260507180106 | 45 | 188 | 3.0 | 12.0 | 0.06 | 0.70 | 0.70 | 95 | 1001.4 |
| 20260507174625 | 46 | 214 | 6.0 | 11.0 | 0.07 | 0.69 | 0.69 | 96 | 1002.1 |
| 20260507173055 | 47 | 229 | 6.0 | 11.0 | 0.09 | 0.69 | 0.69 | 96 | 1002.4 |
| 20260507171605 | 46 | 230 | 6.0 | 14.0 | 0.09 | 0.65 | 0.65 | 96 | 1004.0 |
| 20260507170051 | 46 | 241 | 5.0 | 12.0 | 0.20 | 0.65 | 0.65 | 96 | 1003.2 |
| 20260507164554 | 46 | 236 | 4.0 | 11.0 | 0.30 | 0.62 | 0.62 | 96 | 1003.1 |
| 20260507163050 | 45 | 254 | 5.0 | 8.0 | 0.28 | 0.59 | 0.59 | 95 | 1003.4 |
| 20260507161552 | 46 | 219 | 4.0 | 8.0 | 0.34 | 0.55 | 0.55 | 96 | 1003.6 |
| 20260507160110 | 46 | 314 | 2.0 | 12.0 | 0.23 | 0.43 | 0.43 | 96 | 1003.8 |
| 20260507154547 | 46 | 258 | 9.0 | 14.0 | 0.11 | 0.31 | 0.31 | 96 | 1004.9 |
| 20260507153045 | 46 | 267 | 4.0 | 9.0 | 0.09 | 0.30 | 0.30 | 96 | 1004.4 |
| 20260507151544 | 46 | 245 | 5.0 | 13.0 | 0.01 | 0.21 | 0.21 | 96 | 1004.7 |
| 20260507150044 | 46 | 223 | 8.0 | 15.0 | 0.00 | 0.20 | 0.20 | 96 | 1004.6 |
| 20260507144543 | 46 | 257 | 9.0 | 18.0 | 0.00 | 0.20 | 0.20 | 96 | 1004.6 |
| 20260507143040 | 47 | 241 | 8.0 | 15.0 | 0.00 | 0.20 | 0.20 | 96 | 1005.1 |
| 20260507141538 | 46 | 257 | 7.0 | 14.0 | 0.01 | 0.20 | 0.20 | 96 | 1005.2 |
| 20260507140138 | 46 | 224 | 7.0 | 15.0 | 0.01 | 0.20 | 0.20 | 96 | 1005.2 |
| 20260507134535 | 46 | 252 | 7.0 | 14.0 | 0.01 | 0.20 | 0.20 | 95 | 1005.8 |